Weather History for KRIW - January, 2014

Change the Weather History Date:

Sunday, January 5, 2014

  Actual Average Record
Temperature  
Mean Temperature -2 °F 19 °F  
Max Temperature 9 °F 31 °F 49 °F (1999)
Min Temperature -14 °F 8 °F -16 °F (2004)
Degree Days  
Heating Degree Days 67 46  
Month to date heating degree days 241 230  
Since 1 July heating degree days 3545 3547  
Cooling Degree Days 0 0  
Month to date cooling degree days 0 0  
Year to date cooling degree days 0 0  
Moisture  
Dew Point -4 °F    
Average Humidity 78    
Maximum Humidity 87    
Minimum Humidity 68    
Precipitation  
Precipitation 0.01 in 0.01 in 0.04 in (2004)
Month to date precipitation 0.53 0.05  
Year to date precipitation 0.53 0.05  
Snow  
Snow 1.70 in - - ()
Month to date snowfall 9.2  
Since 1 July snowfall 42.3  
Snow Depth 7.00 in    
Sea Level Pressure  
Sea Level Pressure 30.39 in    
Wind  
Wind Speed 7 mph (ENE)    
Max Wind Speed 26 mph    
Max Gust Speed 31 mph    
Visibility 6 miles    
Events Snow    
T = Trace of Precipitation, MM = Missing Value Source: NWS Daily Summary

Daily Weather History Graph

Daily Weather History Graph

Search for Another Location

Airport or City:

Trip Planner

Search our weather history database for the weather conditions in past years. The results will help you decide how hot, cold, wet, or windy it might be!

Date:

Astronomy

Jan. 05, 2014 Rise Set
Actual Time 7:45 AM MST 4:53 PM MST
Civil Twilight 7:13 AM MST 5:25 PM MST
Nautical Twilight 6:37 AM MST 6:01 PM MST
Astronomical Twilight 6:03 AM MST 6:35 PM MST
Moon 10:20 AM MST (1/5) 10:34 PM MST (1/5)
Length of Visible Light 10h 12m
Length of Day
9h 08m
Waxing Crescent, 25% of the Moon is Illuminated
Jan 5
Waxing Crescent
Jan 7
First Quarter
Jan 15
Full
Jan 23
Last Quarter
Jan 30
New

Hourly Weather History & Observations

Time (MST) Temp. Windchill Dew Point Humidity Pressure Visibility Wind Dir Wind Speed Gust Speed Precip Events Conditions
12:53 AM 7.0 °F - 1.9 °F 80% 30.23 in 10.0 mi Calm Calm - N/A   Overcast
1:19 AM 5.0 °F - -0.0 °F 80% 30.03 in 10.0 mi Calm Calm - N/A   Overcast
1:48 AM 8.6 °F 0.1 °F 5.0 °F 85% 30.04 in 2.0 mi NNE 4.6 mph - 0.00 in Snow Light Snow
1:53 AM 9.0 °F -2.2 °F 5.0 °F 84% 30.25 in 1.8 mi NE 6.9 mph - 0.00 in Snow Light Snow
2:45 AM 6.1 °F -8.7 °F 1.9 °F 83% 30.06 in 2.5 mi ENE 10.4 mph - 0.00 in Snow Light Snow
2:53 AM 6.1 °F -9.5 °F 1.9 °F 83% 30.28 in 3.0 mi NE 11.5 mph - 0.00 in Snow Light Snow
3:53 AM 6.1 °F -11.6 °F 1.0 °F 80% 30.34 in 10.0 mi ENE 15.0 mph - 0.00 in   Overcast
4:40 AM 6.1 °F -10.9 °F 1.9 °F 83% 30.13 in 4.0 mi ENE 13.8 mph - 0.00 in Snow Light Snow
4:53 AM 6.1 °F -10.2 °F 1.9 °F 83% 30.36 in 6.0 mi ENE 12.7 mph - 0.00 in Snow Light Snow
5:29 AM 6.1 °F -5.6 °F 1.9 °F 83% 30.17 in 6.0 mi ENE 6.9 mph - 0.00 in Snow Light Snow
5:53 AM 6.1 °F -5.6 °F 1.9 °F 83% 30.41 in 6.0 mi ENE 6.9 mph - 0.00 in Snow Light Snow
6:53 AM 6.1 °F -7.8 °F 1.0 °F 80% 30.45 in 4.0 mi North 9.2 mph - 0.00 in Snow Light Snow
7:10 AM 3.9 °F -18.1 °F -2.0 °F 76% 30.19 in 2.5 mi NNE 23.0 mph - 0.01 in Snow Light Snow
7:21 AM 3.9 °F -18.1 °F -0.9 °F 80% 30.20 in 1.5 mi NNE 23.0 mph 31.1 mph 0.01 in Snow Light Snow
7:48 AM 3.2 °F -17.6 °F -2.2 °F 78% 30.21 in 2.5 mi NE 19.6 mph - 0.01 in Snow Light Snow
7:53 AM 3.0 °F -17.8 °F -2.9 °F 76% 30.50 in 3.0 mi NNE 19.6 mph - 0.01 in Snow Light Snow
8:02 AM 3.0 °F -16.7 °F -2.9 °F 76% 30.22 in 1.8 mi NNE 17.3 mph 25.3 mph 0.00 in Snow Light Snow
8:15 AM 3.0 °F -17.3 °F -2.9 °F 76% 30.24 in 1.2 mi NNE 18.4 mph - 0.00 in Snow Light Snow
8:53 AM 3.0 °F -14.1 °F -2.9 °F 76% 30.53 in 2.0 mi NE 12.7 mph - 0.00 in Snow Light Snow
9:06 AM 3.0 °F -13.3 °F -2.9 °F 76% 30.27 in 4.0 mi NE 11.5 mph - 0.00 in Snow Light Snow
9:20 AM 3.0 °F -14.8 °F -5.1 °F 69% 30.28 in 8.0 mi NE 13.8 mph - 0.00 in   Overcast
9:45 AM 3.0 °F -14.1 °F -5.1 °F 69% 30.29 in 1.8 mi NNE 12.7 mph - 0.00 in Snow Light Snow
9:53 AM 3.0 °F -13.3 °F -4.0 °F 73% 30.58 in 1.5 mi NNE 11.5 mph - 0.00 in Snow Light Snow
10:50 AM 3.2 °F -10.3 °F -2.2 °F 78% 30.31 in 0.8 mi East 8.1 mph - 0.00 in Snow Light Snow
10:53 AM 3.0 °F -10.5 °F -2.0 °F 80% 30.62 in 0.8 mi East 8.1 mph - 0.00 in Snow Light Snow
11:07 AM 3.9 °F -9.4 °F -2.0 °F 76% 30.31 in 1.2 mi East 8.1 mph - 0.00 in Snow Light Snow
11:18 AM 3.0 °F -11.5 °F -2.9 °F 76% 30.31 in 2.0 mi East 9.2 mph - 0.00 in Snow Light Snow
11:27 AM 3.0 °F -10.5 °F -2.9 °F 76% 30.31 in 5.0 mi ENE 8.1 mph - 0.00 in   Haze
11:53 AM 3.0 °F -9.3 °F -2.9 °F 76% 30.61 in 8.0 mi East 6.9 mph - 0.00 in   Mostly Cloudy
12:05 PM 3.0 °F -11.5 °F -4.0 °F 73% 30.31 in 10.0 mi East 9.2 mph - N/A   Mostly Cloudy
12:53 PM 3.9 °F -5.3 °F -4.0 °F 70% 30.58 in 10.0 mi East 4.6 mph - N/A   Scattered Clouds
1:06 PM 3.0 °F -4.4 °F -2.9 °F 76% 30.29 in 10.0 mi ESE 3.5 mph - N/A   Mostly Cloudy
1:23 PM 3.9 °F -3.4 °F -4.0 °F 70% 30.29 in 10.0 mi East 3.5 mph - N/A   Scattered Clouds
1:53 PM 3.9 °F -3.4 °F -4.0 °F 70% 30.57 in 10.0 mi ENE 3.5 mph - N/A   Clear
2:53 PM 3.9 °F - -4.0 °F 70% 30.61 in 10.0 mi Calm Calm - N/A   Partly Cloudy
3:53 PM 3.0 °F - -5.1 °F 69% 30.64 in 10.0 mi Calm Calm - N/A   Clear
4:38 PM 1.0 °F - -6.0 °F 72% 30.37 in 10.0 mi Calm Calm - N/A   Mostly Cloudy
4:53 PM -2.0 °F -13.9 °F -8.0 °F 76% 30.69 in 10.0 mi SSE 5.8 mph - N/A   Mostly Cloudy
5:05 PM -2.0 °F -12.2 °F -9.0 °F 72% 30.37 in 10.0 mi South 4.6 mph - N/A   Scattered Clouds
5:53 PM -2.9 °F -15.0 °F -9.9 °F 72% 30.70 in 10.0 mi South 5.8 mph - N/A   Clear
6:53 PM -4.0 °F -16.3 °F -11.0 °F 72% 30.70 in 10.0 mi SW 5.8 mph - N/A   Clear
7:53 PM -8.0 °F -21.0 °F -13.0 °F 79% 30.70 in 10.0 mi WSW 5.8 mph - N/A   Clear
8:53 PM -5.1 °F -20.4 °F -9.9 °F 80% 30.66 in 10.0 mi WSW 8.1 mph - N/A   Clear
9:53 PM -14.1 °F -23.9 °F -18.0 °F 82% 30.68 in 10.0 mi WNW 3.5 mph - N/A   Clear
10:53 PM -9.0 °F -18.2 °F -15.0 °F 75% 30.63 in 10.0 mi SW 3.5 mph - N/A   Clear
11:53 PM -11.9 °F -21.5 °F -17.0 °F 78% 30.62 in 10.0 mi NE 3.5 mph - N/A   Clear